Weather History for Danbury, CT

Change the Weather History Date:

Wednesday, December 12, 2012

  Actual Average Record
Temperature  
Mean Temperature 34 °F -  
Max Temperature 41 °F 40 °F 65 °F (1979)
Min Temperature 26 °F 24 °F 4 °F (1962)
Degree Days  
Heating Degree Days 32    
Moisture  
Dew Point 24 °F    
Average Humidity 75    
Maximum Humidity 92    
Minimum Humidity 47    
Precipitation  
Precipitation 0.00 in - - ()
Sea Level Pressure  
Sea Level Pressure 30.36 in    
Wind  
Wind Speed 1 mph (West)    
Max Wind Speed 6 mph    
Max Gust Speed -    
Visibility 10 miles    
Events      
Averages and records for this station are not official NWS values.
T = Trace of Precipitation, MM = Missing Value Source: NWS Daily Summary

Daily Weather History Graph

Daily Weather History Graph

Search for Another Location

Airport:

Trip Planner

Search our weather history database for the weather conditions in past years. The results will help you decide how hot, cold, wet, or windy it might be!

Date:

Astronomy

Dec. 12, 2012 Rise Set
Actual Time 7:11 AM EST 4:24 PM EST
Civil Twilight 6:39 AM EST 4:56 PM EST
Nautical Twilight 6:04 AM EST 5:30 PM EST
Astronomical Twilight 5:31 AM EST 6:04 PM EST
Moon 6:12 AM EST (12/12) 3:59 PM EST (12/12)
Length of Visible Light 10h 16m
Length of Day
9h 13m
Waning Crescent, 1% of the Moon is Illuminated
Dec 12
Waning Crescent
Dec 13
New
Dec 20
First Quarter
Dec 28
Full
Jan 4
Last Quarter

Hourly Weather History & Observations

Time (EST) Temp. Windchill Dew Point Humidity Pressure Visibility Wind Dir Wind Speed Gust Speed Precip Events Conditions
12:53 AM 28.9 °F - 26.1 °F 89% 30.21 in 10.0 mi Calm Calm - N/A   Clear
1:53 AM 28.9 °F - 25.0 °F 85% 30.22 in 10.0 mi Calm Calm - N/A   Clear
2:53 AM 28.0 °F - 25.0 °F 88% 30.26 in 10.0 mi Calm Calm - N/A   Clear
3:53 AM 27.0 °F - 24.1 °F 89% 30.27 in 10.0 mi Calm Calm - N/A   Clear
4:53 AM 26.1 °F - 24.1 °F 92% 30.30 in 10.0 mi Calm Calm - N/A   Clear
5:53 AM 27.0 °F - 25.0 °F 92% 30.32 in 10.0 mi Calm Calm - N/A   Clear
6:53 AM 27.0 °F - 24.1 °F 89% 30.35 in 10.0 mi Calm Calm - N/A   Clear
7:53 AM 28.0 °F - 25.0 °F 88% 30.36 in 10.0 mi Calm Calm - N/A   Clear
8:53 AM 30.9 °F - 27.0 °F 85% 30.38 in 10.0 mi Calm Calm - N/A   Clear
9:53 AM 35.1 °F - 25.0 °F 67% 30.39 in 10.0 mi Calm Calm - N/A   Clear
10:53 AM 36.0 °F - 24.1 °F 62% 30.39 in 10.0 mi Calm Calm - N/A   Clear
11:53 AM 37.9 °F 35.5 °F 24.1 °F 57% 30.38 in 10.0 mi Variable 3.5 mph - N/A   Clear
12:53 PM 39.9 °F 35.8 °F 23.0 °F 51% 30.37 in 10.0 mi West 5.8 mph - N/A   Clear
1:53 PM 41.0 °F 39.0 °F 23.0 °F 49% 30.36 in 10.0 mi WSW 3.5 mph - N/A   Clear
2:53 PM 39.9 °F 36.7 °F 21.9 °F 49% 30.38 in 10.0 mi West 4.6 mph - N/A   Clear
3:53 PM 39.9 °F - 21.0 °F 47% 30.38 in 10.0 mi Calm Calm - N/A   Clear
4:53 PM 36.0 °F - 24.1 °F 62% 30.39 in 10.0 mi Calm Calm - N/A   Clear
5:53 PM 32.0 °F - 23.0 °F 69% 30.41 in 10.0 mi Calm Calm - N/A   Clear
6:53 PM 33.1 °F - 23.0 °F 66% 30.42 in 10.0 mi Calm Calm - N/A   Clear
7:53 PM 30.0 °F - 25.0 °F 82% 30.42 in 10.0 mi Calm Calm - N/A   Clear
8:53 PM 30.0 °F - 25.0 °F 82% 30.43 in 10.0 mi Calm Calm - N/A   Clear
9:53 PM 30.0 °F - 26.1 °F 85% 30.45 in 10.0 mi Calm Calm - N/A   Clear
10:53 PM 28.9 °F - 25.0 °F 85% 30.45 in 10.0 mi Calm Calm - N/A   Clear
11:53 PM 28.0 °F - 25.0 °F 88% 30.45 in 10.0 mi Calm Calm - N/A   Clear